Voltar ao catálogo

CZ-2C R/B

AtivoPO
NORAD 54039·ROCKET BODY·🇨🇳 China

Lançado Oct 12, 2022 de Taiyuan Satellite Launch Center

Loading…

Próximas Passagens (próximas 24 horas)

TLE

AtualizadoSource: Space-Track

Época: Sep 14, 2026, 23:27 UTC

1 54039U 22132E   26257.97764319  .00114637  00000-0  49763-3 0  9993
2 54039  97.2873 269.8142 0012865  99.1137 261.1589 15.84405580220100

Acompanhe CZ-2C R/B em tempo real com AllMySat

Download on the App Store